When you browse on this site, cookies collect data to enhance your experience and personalize the content and advertising you see.
Visit our Privacy Policy to learn more. By continuing to use the site, you agree to this use of cookies and data.
  • Em Portugal
  • Lista de países
  • Para 7 dias
  • Temperatura da água
  • Mapas de satélite
  • Mapa do tempo
  • Widgets de tempo
  • user-avatar
    Iniciar Sessão

    Previsão horária em Stepanakert

    Hoje, 24 Março, Domingo

    Tempo Temperatura Precipitação Vento Pressão Humidade
    00:00 +7°C° 0 mm 1 m/s 688 mmHg 68%
    01:00 +6°C° 0 mm 1 m/s 688 mmHg 67%
    02:00 +6°C° 0 mm 1 m/s 687 mmHg 67%
    03:00 +6°C° 0 mm 1 m/s 687 mmHg 59%
    04:00 +6°C° 0 mm 1 m/s 687 mmHg 60%
    05:00 +5°C° 0 mm 1 m/s 687 mmHg 62%
    06:00 +5°C° 0 mm 1 m/s 687 mmHg 64%
    07:00 +6°C° 0 mm 1 m/s 687 mmHg 59%
    08:00 +7°C° 0 mm 2 m/s 687 mmHg 54%
    09:00 +9°C° 0 mm 2 m/s 687 mmHg 53%
    10:00 +9°C° 0 mm 3 m/s 687 mmHg 53%
    11:00 +10°C° 0 mm 3 m/s 686 mmHg 53%
    12:00 +11°C° 0 mm 3 m/s 686 mmHg 53%
    13:00 +10°C° 0 mm 3 m/s 686 mmHg 56%
    14:00 +10°C° 0 mm 3 m/s 686 mmHg 59%
    15:00 +9°C° 0 mm 3 m/s 685 mmHg 61%
    16:00 +9°C° 0.3 mm 3 m/s 686 mmHg 67%
    17:00 +8°C° 0.3 mm 2 m/s 686 mmHg 73%
    18:00 +7°C° 0.3 mm 2 m/s 686 mmHg 79%
    19:00 +7°C° 1.1 mm 2 m/s 686 mmHg 82%
    20:00 +6°C° 1.1 mm 2 m/s 687 mmHg 84%
    21:00 +6°C° 1.1 mm 2 m/s 687 mmHg 87%
    22:00 +5°C° 0.4 mm 2 m/s 687 mmHg 87%
    23:00 +5°C° 0.4 mm 2 m/s 687 mmHg 86%

    Amanhã, 25 Março, Segunda-feira

    Tempo Temperatura Precipitação Vento Pressão Humidade
    00:00 +4°C° 0.4 mm 2 m/s 687 mmHg 86%
    01:00 +5°C° 0.1 mm 1 m/s 687 mmHg 86%
    02:00 +5°C° 0.1 mm 1 m/s 687 mmHg 85%
    03:00 +5°C° 0.1 mm 1 m/s 687 mmHg 84%
    04:00 +5°C° 0.1 mm 1 m/s 687 mmHg 84%
    05:00 +5°C° 0.1 mm 1 m/s 687 mmHg 84%
    06:00 +3°C° 0.1 mm 0 m/s 688 mmHg 83%
    07:00 +5°C° 0.2 mm 1 m/s 688 mmHg 82%
    08:00 +5°C° 0.2 mm 1 m/s 688 mmHg 81%
    09:00 +4°C° 0.2 mm 2 m/s 688 mmHg 79%
    10:00 +4°C° 0.3 mm 2 m/s 688 mmHg 80%
    11:00 +4°C° 0.3 mm 2 m/s 688 mmHg 82%
    12:00 +3°C° 0.3 mm 3 m/s 688 mmHg 83%
    13:00 +3°C° 0.7 mm 3 m/s 688 mmHg 84%
    14:00 +3°C° 0.7 mm 3 m/s 688 mmHg 85%
    15:00 +2°C° 0.7 mm 3 m/s 688 mmHg 86%
    16:00 +2°C° 0.5 mm 3 m/s 688 mmHg 87%
    17:00 +2°C° 0.5 mm 2 m/s 689 mmHg 88%
    18:00 +2°C° 0.5 mm 2 m/s 689 mmHg 89%
    19:00 +2°C° 0.6 mm 2 m/s 689 mmHg 90%
    20:00 +3°C° 0.6 mm 1 m/s 690 mmHg 90%
    21:00 +3°C° 0.6 mm 1 m/s 690 mmHg 90%
    22:00 +3°C° 0.3 mm 1 m/s 690 mmHg 90%
    23:00 +3°C° 0.3 mm 1 m/s 690 mmHg 90%

    Depois de amanhã, 26 Março, Terça-feira

    Tempo Temperatura Precipitação Vento Pressão Humidade
    00:00 +3°C° 0.3 mm 1 m/s 690 mmHg 91%
    01:00 +3°C° 0.3 mm 1 m/s 691 mmHg 91%
    02:00 +3°C° 0.3 mm 1 m/s 691 mmHg 91%
    03:00 +2°C° 0.3 mm 1 m/s 691 mmHg 92%
    04:00 +1°C° 0.2 mm 0 m/s 691 mmHg 91%
    05:00 +1°C° 0.2 mm 0 m/s 691 mmHg 91%
    06:00 +1°C° 0.2 mm 0 m/s 691 mmHg 91%
    07:00 +3°C° 0.2 mm 1 m/s 691 mmHg 89%
    08:00 +4°C° 0.2 mm 1 m/s 691 mmHg 87%
    09:00 +5°C° 0.2 mm 1 m/s 692 mmHg 85%
    10:00 +4°C° 0.1 mm 2 m/s 692 mmHg 84%
    11:00 +5°C° 0.1 mm 2 m/s 691 mmHg 83%
    12:00 +6°C° 0.1 mm 2 m/s 691 mmHg 82%
    13:00 +6°C° 0 mm 2 m/s 690 mmHg 82%
    14:00 +6°C° 0 mm 2 m/s 690 mmHg 83%
    15:00 +6°C° 0 mm 2 m/s 689 mmHg 84%
    16:00 +5°C° 0 mm 2 m/s 689 mmHg 86%
    17:00 +6°C° 0 mm 1 m/s 689 mmHg 88%
    18:00 +6°C° 0 mm 1 m/s 689 mmHg 90%
    19:00 +5°C° 0 mm 1 m/s 690 mmHg 91%
    20:00 +4°C° 0 mm 0 m/s 690 mmHg 92%
    21:00 +3°C° 0 mm 0 m/s 690 mmHg 94%
    22:00 +3°C° 0 mm 0 m/s 690 mmHg 92%
    23:00 +3°C° 0 mm 0 m/s 690 mmHg 90%

    27 Março, Quarta-feira

    Tempo Temperatura Precipitação Vento Pressão Humidade
    00:00 +4°C° 0 mm 1 m/s 689 mmHg 87%
    01:00 +4°C° 0 mm 1 m/s 689 mmHg 87%
    02:00 +4°C° 0 mm 1 m/s 689 mmHg 86%
    03:00 +4°C° 0 mm 1 m/s 689 mmHg 86%
    04:00 +4°C° 0 mm 1 m/s 689 mmHg 85%
    05:00 +3°C° 0 mm 1 m/s 688 mmHg 83%
    06:00 +3°C° 0 mm 1 m/s 688 mmHg 82%
    07:00 +5°C° 0 mm 1 m/s 689 mmHg 79%
    08:00 +7°C° 0 mm 1 m/s 689 mmHg 76%
    09:00 +9°C° 0 mm 1 m/s 690 mmHg 73%
    10:00 +10°C° 0 mm 1 m/s 689 mmHg 70%
    11:00 +10°C° 0 mm 2 m/s 689 mmHg 67%
    12:00 +13°C° 0 mm 2 m/s 689 mmHg 64%
    13:00 +13°C° 0.1 mm 2 m/s 689 mmHg 64%
    14:00 +13°C° 0.1 mm 2 m/s 689 mmHg 64%
    15:00 +13°C° 0.1 mm 2 m/s 689 mmHg 64%
    16:00 +13°C° 0 mm 2 m/s 689 mmHg 68%
    17:00 +12°C° 0 mm 1 m/s 689 mmHg 72%
    18:00 +11°C° 0 mm 1 m/s 689 mmHg 76%
    19:00 +10°C° 0 mm 1 m/s 690 mmHg 75%
    20:00 +10°C° 0 mm 1 m/s 690 mmHg 74%
    21:00 +9°C° 0 mm 1 m/s 691 mmHg 73%
    22:00 +9°C° 0 mm 1 m/s 691 mmHg 72%
    23:00 +9°C° 0 mm 1 m/s 691 mmHg 71%

    28 Março, Quinta-feira

    Tempo Temperatura Precipitação Vento Pressão Humidade
    00:00 +8°C° 0 mm 1 m/s 691 mmHg 69%
    01:00 +8°C° 0 mm 1 m/s 691 mmHg 72%
    02:00 +8°C° 0 mm 1 m/s 692 mmHg 74%
    03:00 +8°C° 0 mm 1 m/s 692 mmHg 76%
    04:00 +7°C° 0.2 mm 1 m/s 692 mmHg 78%
    05:00 +7°C° 0.2 mm 1 m/s 692 mmHg 80%
    06:00 +6°C° 0.2 mm 0 m/s 692 mmHg 82%
    07:00 +8°C° 0.4 mm 1 m/s 693 mmHg 81%
    08:00 +9°C° 0.4 mm 1 m/s 693 mmHg 80%
    09:00 +9°C° 0.4 mm 1 m/s 693 mmHg 79%
    10:00 +9°C° 0.2 mm 2 m/s 693 mmHg 77%
    11:00 +9°C° 0.2 mm 2 m/s 693 mmHg 75%
    12:00 +10°C° 0.2 mm 2 m/s 693 mmHg 73%
    13:00 +10°C° 0.2 mm 2 m/s 693 mmHg 74%
    14:00 +10°C° 0.2 mm 3 m/s 692 mmHg 75%
    15:00 +10°C° 0.2 mm 3 m/s 692 mmHg 76%
    16:00 +9°C° 0.6 mm 3 m/s 692 mmHg 81%
    17:00 +8°C° 0.6 mm 2 m/s 692 mmHg 86%
    18:00 +8°C° 0.6 mm 2 m/s 692 mmHg 90%
    19:00 +7°C° 1.7 mm 2 m/s 692 mmHg 91%
    20:00 +7°C° 1.7 mm 3 m/s 693 mmHg 92%
    21:00 +5°C° 1.7 mm 3 m/s 693 mmHg 93%
    22:00 +4°C° 0.8 mm 3 m/s 693 mmHg 93%
    23:00 +4°C° 0.8 mm 3 m/s 693 mmHg 94%

    29 Março, Sexta-feira

    Tempo Temperatura Precipitação Vento Pressão Humidade
    00:00 +4°C° 0.8 mm 2 m/s 693 mmHg 94%
    01:00 +4°C° 0.3 mm 2 m/s 693 mmHg 93%
    02:00 +3°C° 0.3 mm 2 m/s 693 mmHg 93%
    03:00 +3°C° 0.3 mm 2 m/s 692 mmHg 92%
    04:00 +3°C° 0.5 mm 2 m/s 693 mmHg 92%
    05:00 +3°C° 0.5 mm 2 m/s 693 mmHg 92%
    06:00 +2°C° 0.5 mm 2 m/s 693 mmHg 92%
    07:00 +2°C° 0.6 mm 2 m/s 693 mmHg 91%
    08:00 +3°C° 0.6 mm 2 m/s 694 mmHg 90%
    09:00 +3°C° 0.6 mm 2 m/s 694 mmHg 90%
    10:00 +2°C° 0.1 mm 3 m/s 694 mmHg 89%
    11:00 +3°C° 0.1 mm 3 m/s 694 mmHg 88%
    12:00 +3°C° 0.1 mm 3 m/s 694 mmHg 88%
    13:00 +3°C° 0.1 mm 3 m/s 693 mmHg 88%
    14:00 +3°C° 0.1 mm 3 m/s 693 mmHg 89%
    15:00 +3°C° 0.1 mm 3 m/s 693 mmHg 89%
    16:00 +4°C° 0.1 mm 2 m/s 693 mmHg 91%
    17:00 +3°C° 0.1 mm 2 m/s 693 mmHg 92%
    18:00 +3°C° 0.1 mm 2 m/s 693 mmHg 93%
    19:00 +3°C° 0.1 mm 2 m/s 693 mmHg 93%
    20:00 +3°C° 0.1 mm 2 m/s 694 mmHg 94%
    21:00 +3°C° 0.1 mm 2 m/s 694 mmHg 94%
    22:00 +2°C° 0.1 mm 2 m/s 694 mmHg 94%
    23:00 +2°C° 0.1 mm 2 m/s 694 mmHg 95%
    Mostrar mais